Усун

Россия / Республика Саха (Якутия)     64°31′08″N   121°02′27″E
темп.,
°C
ветер,
м/с
пор.,
м/с
влажн.,
%
обл.,
%
осадки,
мм/ч
давл.,
гПа
погр.,
м
19 июня, сб
сб1900:00+20в3442100 0.0 100659
03:00+21св61139100 0.0 1006368
06:00+19в465150 0.0 1008350
09:00+22вюв4553100 0.0 10071034
12:00+25юв5546100 0.0 10071694
15:00+26ююв2441100 0.0 10062079
18:00+27юв333899 0.0 10062091
21:00+24ю235183 0.0 100738
20 июня, вс
вс2000:00+20ююз1164100 0.0 100711
03:00+19вюв226575 0.1 100816
06:00+20в227478 2.2 100892
09:00+25юв34535 2.3 1008671
12:00+29ююв34385 0.0 10071897
15:00+30ююв333299 0.0 10062983
18:00+30юв223380 0.0 10061621
21:00+26ююв11506 0.0 100611
21 июня, пн
пн2100:00+22юв33565 0.0 100728
03:00+20юв23616 0.0 100716
06:00+23юв345626 0.0 1007151
09:00+28юв344040 0.0 1006566
12:00+31ю433370 0.0 10062411
15:00+31ююз3331100 0.0 10051730
18:00+31ю112799 0.0 10042206
21:00+27вюв224471 0.0 100414
22 июня, вт
вт2200:00+22юз115397 0.0 100411
03:00+22з2247100 0.0 100515
06:00+23зсз1150100 0.0 100565
09:00+28сз2237100 0.1 1005390
12:00+32ссз2228100 0.0 10051936
15:00+32сз3226100 0.0 10042816
18:00+22с91162100 0.9 1007269
21:00+23св35559 1.8 100670
23 июня, ср
ср2300:00+19сз227110 0.5 100716
03:00+19с227230 0.7 100816
06:00+21ссз35728 0.9 1009160
09:00+27св455163 0.9 1010572
12:00+30св44348 0.0 10091292
15:00+32всв33295 0.0 10102323
18:00+31всв543047 0.0 10102150
21:00+23ссз1161100 0.5 101124